When you browse on this site, cookies collect data to enhance your experience and personalize the content and advertising you see.
Visit our Privacy Policy to learn more. By continuing to use the site, you agree to this use of cookies and data.
  • In Hungary
  • List of Countries
  • For 7 days
  • Water Temperature
  • Satellite Maps
  • Weather Map
  • News
  • Weather Widgets
  • user-avatar
    Login

    Hourly Weather Río Gallegos

    Today, 19 December, Wednesday

    Time Temperature Precipitation Wind Pressure Humidity
    00:00 +11°C° 0 mm 4 mps 754 mmHg 83%
    01:00 +11°C° 0 mm 4 mps 755 mmHg 85%
    02:00 +10°C° 0 mm 3 mps 755 mmHg 86%
    03:00 +10°C° 0 mm 3 mps 755 mmHg 87%
    04:00 +10°C° 0 mm 3 mps 756 mmHg 88%
    05:00 +10°C° 0 mm 3 mps 756 mmHg 84%
    06:00 +11°C° 0 mm 3 mps 757 mmHg 79%
    07:00 +13°C° 0 mm 2 mps 757 mmHg 75%
    08:00 +13°C° 0 mm 3 mps 758 mmHg 71%
    09:00 +14°C° 0 mm 3 mps 758 mmHg 68%
    10:00 +16°C° 0 mm 3 mps 758 mmHg 65%
    11:00 +17°C° 0 mm 3 mps 758 mmHg 62%
    12:00 +17°C° 0 mm 4 mps 758 mmHg 58%
    13:00 +18°C° 0 mm 4 mps 758 mmHg 55%
    14:00 +19°C° 0 mm 4 mps 758 mmHg 53%
    15:00 +19°C° 0 mm 4 mps 758 mmHg 51%
    16:00 +20°C° 0 mm 4 mps 758 mmHg 50%
    17:00 +19°C° 0 mm 3 mps 758 mmHg 51%
    18:00 +19°C° 0 mm 3 mps 758 mmHg 53%
    19:00 +19°C° 0 mm 2 mps 758 mmHg 55%
    20:00 +18°C° 0 mm 2 mps 759 mmHg 58%
    21:00 +17°C° 0 mm 3 mps 759 mmHg 61%
    22:00 +16°C° 0 mm 3 mps 759 mmHg 64%
    23:00 +14°C° 0 mm 3 mps 759 mmHg 66%

    Tomorrow, 20 December, Thursday

    Time Temperature Precipitation Wind Pressure Humidity
    00:00 +14°C° 0 mm 3 mps 758 mmHg 67%
    01:00 +13°C° 0 mm 3 mps 758 mmHg 69%
    02:00 +13°C° 0 mm 3 mps 757 mmHg 69%
    03:00 +13°C° 0 mm 3 mps 757 mmHg 69%
    04:00 +13°C° 0 mm 3 mps 757 mmHg 69%
    05:00 +14°C° 0 mm 4 mps 756 mmHg 64%
    06:00 +15°C° 0 mm 4 mps 756 mmHg 59%
    07:00 +18°C° 0 mm 4 mps 755 mmHg 54%
    08:00 +19°C° 0 mm 5 mps 755 mmHg 50%
    09:00 +20°C° 0 mm 6 mps 755 mmHg 46%
    10:00 +21°C° 0 mm 6 mps 754 mmHg 42%
    11:00 +21°C° 0.1 mm 7 mps 754 mmHg 43%
    12:00 +20°C° 0.1 mm 8 mps 754 mmHg 44%
    13:00 +19°C° 0.1 mm 9 mps 754 mmHg 45%
    14:00 +18°C° 0 mm 11 mps 754 mmHg 45%
    15:00 +18°C° 0 mm 12 mps 754 mmHg 44%
    16:00 +18°C° 0 mm 13 mps 754 mmHg 44%
    17:00 +15°C° 0 mm 13 mps 755 mmHg 46%
    18:00 +14°C° 0 mm 12 mps 755 mmHg 48%
    19:00 +13°C° 0 mm 12 mps 755 mmHg 50%
    20:00 +12°C° 0 mm 11 mps 756 mmHg 52%
    21:00 +11°C° 0 mm 10 mps 756 mmHg 55%
    22:00 +10°C° 0 mm 9 mps 756 mmHg 58%
    23:00 +10°C° 0 mm 9 mps 756 mmHg 58%

    Day after tomorrow, 21 December, Friday

    Time Temperature Precipitation Wind Pressure Humidity
    00:00 +10°C° 0 mm 9 mps 756 mmHg 59%
    01:00 +9°C° 0 mm 10 mps 756 mmHg 59%
    02:00 +10°C° 0 mm 9 mps 755 mmHg 59%
    03:00 +11°C° 0 mm 9 mps 755 mmHg 58%
    04:00 +11°C° 0 mm 9 mps 755 mmHg 58%
    05:00 +12°C° 0 mm 10 mps 755 mmHg 55%
    06:00 +13°C° 0 mm 11 mps 755 mmHg 51%
    07:00 +14°C° 0 mm 11 mps 755 mmHg 48%
    08:00 +15°C° 0 mm 12 mps 754 mmHg 47%
    09:00 +15°C° 0 mm 12 mps 754 mmHg 47%
    10:00 +17°C° 0 mm 12 mps 754 mmHg 46%
    11:00 +18°C° 0 mm 12 mps 754 mmHg 45%
    12:00 +18°C° 0 mm 13 mps 754 mmHg 44%
    13:00 +19°C° 0 mm 13 mps 754 mmHg 42%
    14:00 +19°C° 0 mm 13 mps 753 mmHg 43%
    15:00 +18°C° 0 mm 13 mps 753 mmHg 43%
    16:00 +18°C° 0 mm 13 mps 753 mmHg 43%
    17:00 +17°C° 0 mm 12 mps 753 mmHg 46%
    18:00 +16°C° 0 mm 11 mps 753 mmHg 48%
    19:00 +16°C° 0 mm 11 mps 753 mmHg 50%
    20:00 +14°C° 0.1 mm 10 mps 753 mmHg 54%
    21:00 +13°C° 0.1 mm 9 mps 753 mmHg 57%
    22:00 +12°C° 0.1 mm 9 mps 753 mmHg 60%
    23:00 +12°C° 0.3 mm 8 mps 753 mmHg 63%

    22 December, Saturday

    Time Temperature Precipitation Wind Pressure Humidity
    00:00 +12°C° 0.3 mm 7 mps 753 mmHg 66%
    01:00 +13°C° 0.3 mm 6 mps 753 mmHg 69%
    02:00 +11°C° 0.1 mm 6 mps 753 mmHg 68%
    03:00 +12°C° 0.1 mm 5 mps 753 mmHg 68%
    04:00 +12°C° 0.1 mm 5 mps 752 mmHg 67%
    05:00 +13°C° 0 mm 6 mps 753 mmHg 62%
    06:00 +14°C° 0 mm 7 mps 753 mmHg 58%
    07:00 +15°C° 0 mm 8 mps 753 mmHg 53%
    08:00 +16°C° 0 mm 8 mps 752 mmHg 51%
    09:00 +16°C° 0 mm 8 mps 752 mmHg 48%
    10:00 +17°C° 0 mm 8 mps 752 mmHg 46%
    11:00 +17°C° 0 mm 8 mps 752 mmHg 44%
    12:00 +18°C° 0 mm 8 mps 751 mmHg 43%
    13:00 +18°C° 0 mm 8 mps 751 mmHg 42%
    14:00 +18°C° 0.1 mm 8 mps 751 mmHg 43%
    15:00 +20°C° 0.1 mm 8 mps 751 mmHg 43%
    16:00 +20°C° 0.1 mm 8 mps 752 mmHg 44%
    17:00 +18°C° 0 mm 8 mps 752 mmHg 46%
    18:00 +17°C° 0 mm 8 mps 753 mmHg 48%
    19:00 +16°C° 0 mm 7 mps 753 mmHg 50%
    20:00 +15°C° 0 mm 7 mps 753 mmHg 54%
    21:00 +14°C° 0 mm 6 mps 754 mmHg 57%
    22:00 +13°C° 0 mm 5 mps 754 mmHg 61%
    23:00 +13°C° 0 mm 4 mps 754 mmHg 63%

    23 December, Sunday

    Time Temperature Precipitation Wind Pressure Humidity
    00:00 +12°C° 0 mm 3 mps 754 mmHg 64%
    01:00 +13°C° 0 mm 2 mps 754 mmHg 66%
    02:00 +13°C° 0.1 mm 2 mps 754 mmHg 67%
    03:00 +12°C° 0.1 mm 3 mps 754 mmHg 68%
    04:00 +12°C° 0.1 mm 3 mps 754 mmHg 68%
    05:00 +13°C° 0 mm 4 mps 754 mmHg 66%
    06:00 +14°C° 0 mm 5 mps 754 mmHg 63%
    07:00 +14°C° 0 mm 6 mps 754 mmHg 60%
    08:00 +15°C° 0 mm 7 mps 753 mmHg 58%
    09:00 +16°C° 0 mm 8 mps 752 mmHg 55%
    10:00 +18°C° 0 mm 8 mps 751 mmHg 53%
    11:00 +18°C° 0 mm 8 mps 750 mmHg 51%
    12:00 +20°C° 0 mm 7 mps 749 mmHg 50%
    13:00 +21°C° 0 mm 7 mps 748 mmHg 49%
    14:00 +20°C° 0 mm 6 mps 747 mmHg 51%
    15:00 +19°C° 0 mm 6 mps 747 mmHg 54%
    16:00 +17°C° 0 mm 6 mps 746 mmHg 57%
    17:00 +16°C° 0 mm 7 mps 747 mmHg 58%
    18:00 +15°C° 0 mm 9 mps 747 mmHg 58%
    19:00 +13°C° 0 mm 11 mps 748 mmHg 59%
    20:00 +11°C° 0 mm 11 mps 749 mmHg 58%
    21:00 +9°C° 0 mm 11 mps 749 mmHg 57%
    22:00 +7°C° 0 mm 11 mps 750 mmHg 56%
    23:00 +7°C° 0.1 mm 10 mps 751 mmHg 55%

    24 December, Monday

    Time Temperature Precipitation Wind Pressure Humidity
    00:00 +7°C° 0.1 mm 9 mps 751 mmHg 55%
    01:00 +6°C° 0.1 mm 8 mps 751 mmHg 54%
    02:00 +6°C° 0 mm 7 mps 751 mmHg 56%
    03:00 +7°C° 0 mm 6 mps 751 mmHg 57%
    04:00 +6°C° 0 mm 4 mps 751 mmHg 59%
    05:00 +7°C° 0 mm 5 mps 751 mmHg 56%
    06:00 +8°C° 0 mm 6 mps 751 mmHg 52%
    07:00 +9°C° 0 mm 6 mps 751 mmHg 49%
    08:00 +9°C° 0.1 mm 6 mps 751 mmHg 47%
    09:00 +10°C° 0.1 mm 7 mps 751 mmHg 45%
    10:00 +11°C° 0.1 mm 7 mps 751 mmHg 43%
    11:00 +11°C° 0.2 mm 7 mps 751 mmHg 44%
    12:00 +11°C° 0.2 mm 8 mps 750 mmHg 45%
    13:00 +11°C° 0.2 mm 8 mps 750 mmHg 46%
    14:00 +11°C° 0.2 mm 8 mps 750 mmHg 46%
    15:00 +11°C° 0.2 mm 8 mps 749 mmHg 47%
    16:00 +11°C° 0.2 mm 9 mps 749 mmHg 48%
    17:00 +11°C° 0.3 mm 9 mps 749 mmHg 47%
    18:00 +9°C° 0.3 mm 10 mps 750 mmHg 47%
    19:00 +8°C° 0.3 mm 10 mps 750 mmHg 46%
    20:00 +7°C° 0 mm 10 mps 750 mmHg 50%
    21:00 +6°C° 0 mm 10 mps 751 mmHg 54%
    22:00 +5°C° 0 mm 10 mps 751 mmHg 57%
    23:00 +4°C° 0 mm 11 mps 751 mmHg 58%
    Show more